sat.trackr.live / text

‹ back to catalog

CELTEE 1

NORAD 41850 · 2016-067C

PAYLOAD ACTIVE UNKNOWN

§ Identity

Operator
Country
US
Launch date
2016-11-11
Launch site
AFWTR
Launch vehicle
Mass (kg)
RCS (m²)
0.01

Purposes: tech_demo

External: N2YO · Heavens-Above · Gunter

§ Orbital elements

Epoch: 2026-05-25T02:15:03.005856Z

Period
94.77 min
Inclination
98.0706°
Eccentricity
0.0001150
Mean motion
15.19416037 rev/d
Perigee alt
506.8 km
Apogee alt
508.4 km
Semi-major
6,885.7 km
B*
2.2880e-4
RAAN
10.0867°
Arg perigee
55.3714°
Mean anomaly
304.7627°
Rev number
52,237

§ Raw data

CELTEE 11 41850U 16067C   26145.09378479  .00004768  00000+0  22880-3 0  99902 41850  98.0706  10.0867 0001150  55.3714 304.7627 15.19416037522379

JSON: /api/v1/satellites/41850 · /tle

For live sub-satellite position, see the globe view (requires WebGL).

§ Visibility from observer

Set your observer location to see the next 7 days of passes ≥ 10°. The values pass through the URL so the page stays shareable.

No JS? Fill the form by hand. The geolocation button needs JavaScript.